Flag for Germany Weather past 2 weeks in Greifswald, Mecklenburg-Western Pomerania, Germany

Now
51 °F

Light rain. Low clouds.


Feels Like: 49 °F
Forecast: 41 / 50 °F
Wind: 7 mph from Southwest

Location: Greifswald

Current Time: Dec 18, 2014 at 11:29:49 PM

Latest Report: Dec 18, 2014 at 9:00 PM


Visibility: 6 mi

Pressure: 29.55 "Hg

Humidity: 94%

Dew point: 49 °F

Location of GreifswaldLocation

Historic Weather in Greifswald — Graph

°F

Greifswald temperature yesterday

Maximum temperature yesterday: 39 °F (at 2:00 PM)
Minimum temperature yesterday: 35 °F (at 5:00 AM)
Average temperature yesterday: 37 °F

Past Weeks' High & Low Weather Summary

 TemperatureHumidityPressure
High51 °F (Dec 18, 9:00 PM)100% (Dec 6, 8:00 PM)30.32 "Hg (Dec 6, 8:00 PM)
Low29 °F (Dec 7, 5:00 AM)75% (Dec 15, 11:00 AM)29.21 "Hg (Dec 12, 5:00 PM)
Average37 °F89%29.88 "Hg
* Reported Dec 3 9:00 PM — Dec 18 9:00 PM, Greifswald, Weather by CustomWeather, © 2014

Note: Actual official high and low records may vary slightly from our data, if they occured in-between our weather recording intervals... More about our weather records

Advertising

Greifswald weather history for previous 24 hours

 ConditionsComfort  
Time TempWeatherWind HumidityBarometerVisibility
9:00 PM
Dec 18
51 °FLight rain. Low clouds.7 mph94%29.55 "Hg6 mi
8:00 PM51 °FLight rain. Low clouds.7 mph95%29.56 "Hg3 mi
7:00 PM50 °FDrizzle. Overcast.6 mph94%29.57 "Hg3 mi
6:00 PM50 °FLow clouds.6 mph94%29.59 "Hg4 mi
5:00 PM50 °FDrizzle. Low clouds.6 mph96%29.61 "Hg4 mi
3:00 PM50 °FLow clouds.6 mph94%29.63 "Hg4 mi
2:00 PM49 °FDrizzle. Low clouds.5 mph96%29.65 "Hg1 mi
1:00 PM48 °FLight rain. Low clouds.5 mph97%29.67 "Hg2 mi
12:00 PM48 °FRain. Low clouds.5 mph93%29.68 "Hg2 mi
11:00 AM47 °FLow clouds.5 mph91%29.71 "Hg6 mi
9:00 AM45 °FOvercast.3 mph90%29.71 "Hg10 mi
8:00 AM45 °FOvercast.3 mph93%29.71 "Hg7 mi
7:00 AM43 °FPassing clouds.3 mph94%29.70 "Hg7 mi
6:00 AM43 °FOvercast.5 mph96%29.69 "Hg5 mi
5:00 AM42 °FFog.5 mph96%29.67 "Hg4 mi
3:00 AM39 °FLow clouds.3 mph97%29.65 "Hg2 mi
2:00 AM39 °FFog.3 mph97%29.64 "Hg3 mi
1:00 AM38 °FFog.2 mph93%29.63 "Hg4 mi
12:00 AM38 °FLow clouds.3 mph91%29.62 "Hg5 mi
11:00 PM
Dec 17
38 °FLow clouds.2 mph90%29.63 "Hg6 mi
Weather by CustomWeather, © 2014

See weather overviewHow to use our weather pages